Darstellungsparameter: Aktuell verwendete Einstellungen:
Skalierung der Graphiken ... ?
xyx+y,   Skalierungsfaktor:      Skalierung: Modus: x, Faktor: 1
Darstellungszeitraum ... ?
Vom - - bis: - -   Zeitraum: 04.05.2021 - 04.05.2021
Min/Max/Avg-Anzeige ... ?
Zeige MMA aktuell
Zeige MMA Monat
Zeige MMA alles
Zeige --A aktuell
Zeige --A Monat
Zeige --A alles
Keine MMA-Anzeige
MMA:
Minimum Maximum Average (ber die Originaldaten)
MMA-Basis: 04.05.2021 - 04.05.2021
Quicknavigation für Darstellung... ?
Tage:      1T, 2T, 3T, 5T -1T -2T -3T -5T +1T +2T +3T +5T
Wochen: 1W, 2W, 3W -1W -2W -3W +1W +2W +3W
Monate: 1M, 3M, 6M -1M -3M -6M +1M +3M +6M
Jahre:    1J, 3J, 5J, 10J -1J -3J -5J -10J +1J +3J +5J +10J
Nutze für die Darstellung ... ?
Originaldaten oder Mittelwerte auf ...
Stundenbasis Tagesbasis Wochenbasis
Monatsbasis Jahresbasis      Datenbasis: Original-Daten
Darstellen als:
Statistik (Auto) Statistik J:M      Darstellung:
Zur Graphik,    zurück zur Übersicht aller Sensoren.
 
Tabellarische Datenbersicht: ?
 
Sensor: Nr:Datum:Temp:Abs-Feuchte:Windchill:Wind:
Aussen-T/F 1 04-05-2021 00:00:00 8.6 C 5.76 g/m*3 8.6 C 3.2 km/h
2 04-05-2021 00:05:00 8.7 C 5.71 g/m*3 8.7 C 1.6 km/h
3 04-05-2021 00:10:00 8.7 C 5.79 g/m*3 8.7 C 0 km/h
4 04-05-2021 00:15:00 8.7 C 5.62 g/m*3 8.7 C 1.6 km/h
5 04-05-2021 00:20:00 8.8 C 5.57 g/m*3 8.8 C 3.2 km/h
6 04-05-2021 00:25:00 9 C 5.64 g/m*3 9 C 3.2 km/h
7 04-05-2021 00:30:00 9.2 C 5.71 g/m*3 9.2 C 1.6 km/h
8 04-05-2021 00:35:00 9.3 C 5.75 g/m*3 9.3 C 3.2 km/h
9 04-05-2021 00:40:00 9.3 C 5.57 g/m*3 9.3 C 3.2 km/h
10 04-05-2021 00:45:00 9.4 C 5.7 g/m*3 9.4 C 1.6 km/h
11 04-05-2021 00:50:00 9.5 C 5.73 g/m*3 9.5 C 1.6 km/h
12 04-05-2021 00:55:00 9.6 C 5.77 g/m*3 8.91 C 6.4 km/h
13 04-05-2021 01:00:00 9.6 C 5.59 g/m*3 9.6 C 4.8 km/h
14 04-05-2021 01:05:00 9.8 C 5.66 g/m*3 9.8 C 4.8 km/h
15 04-05-2021 01:10:00 9.9 C 5.51 g/m*3 9.9 C 4.8 km/h
16 04-05-2021 01:15:00 10.1 C 5.39 g/m*3 9.1 C 8.1 km/h
17 04-05-2021 01:20:00 10.3 C 5.65 g/m*3 10.3 C 1.6 km/h
18 04-05-2021 01:25:00 10.4 C 5.49 g/m*3 10.4 C 4.8 km/h
19 04-05-2021 01:30:00 10.6 C 5.56 g/m*3 10.6 C 4.8 km/h
20 04-05-2021 01:35:00 10.7 C 5.5 g/m*3 9.81 C 8.1 km/h
21 04-05-2021 01:40:00 10.8 C 5.54 g/m*3 10.8 C 3.2 km/h
22 04-05-2021 01:45:00 10.9 C 5.57 g/m*3 9.76 C 9.7 km/h
23 04-05-2021 01:50:00 11 C 5.51 g/m*3 9.88 C 9.7 km/h
24 04-05-2021 01:55:00 11.1 C 5.44 g/m*3 11.1 C 8.1 km/h
25 04-05-2021 02:00:00 11.2 C 5.57 g/m*3 11.2 C 6.4 km/h
Sensor: Nr:Datum:Temp:Abs-Feuchte:Windchill:Wind:
Aussen-T/F 26 04-05-2021 02:05:00 11.3 C 5.51 g/m*3 11.3 C 4.8 km/h
27 04-05-2021 02:10:00 11.3 C 5.61 g/m*3 11.3 C 3.2 km/h
28 04-05-2021 02:15:00 11.3 C 5.61 g/m*3 11.3 C 6.4 km/h
29 04-05-2021 02:20:00 11.3 C 5.51 g/m*3 11.3 C 6.4 km/h
30 04-05-2021 02:25:00 11.4 C 5.54 g/m*3 11.4 C 11.3 km/h
31 04-05-2021 02:30:00 11.5 C 5.47 g/m*3 11.5 C 8.1 km/h
32 04-05-2021 02:35:00 11.6 C 5.51 g/m*3 11.6 C 4.8 km/h
33 04-05-2021 02:40:00 11.6 C 5.61 g/m*3 11.6 C 3.2 km/h
34 04-05-2021 02:45:00 11.6 C 5.51 g/m*3 11.6 C 6.4 km/h
35 04-05-2021 02:50:00 11.6 C 5.61 g/m*3 11.6 C 8.1 km/h
36 04-05-2021 02:55:00 11.6 C 5.61 g/m*3 11.6 C 9.7 km/h
37 04-05-2021 03:00:00 11.6 C 5.51 g/m*3 11.6 C 14.5 km/h
38 04-05-2021 03:05:00 11.6 C 5.61 g/m*3 11.6 C 4.8 km/h
39 04-05-2021 03:10:00 11.6 C 5.61 g/m*3 11.6 C 4.8 km/h
40 04-05-2021 03:15:00 11.6 C 5.72 g/m*3 11.6 C 4.8 km/h
41 04-05-2021 03:20:00 11.6 C 5.61 g/m*3 11.6 C 8.1 km/h
42 04-05-2021 03:25:00 11.6 C 5.61 g/m*3 11.6 C 4.8 km/h
43 04-05-2021 03:30:00 11.6 C 5.61 g/m*3 11.6 C 14.5 km/h
44 04-05-2021 03:35:00 11.8 C 5.68 g/m*3 11.8 C 6.4 km/h
45 04-05-2021 03:40:00 11.9 C 5.61 g/m*3 11.9 C 6.4 km/h
46 04-05-2021 03:45:00 12.1 C 5.58 g/m*3 12.1 C 8.1 km/h
47 04-05-2021 03:50:00 12.3 C 5.65 g/m*3 12.3 C 17.7 km/h
48 04-05-2021 03:55:00 12.4 C 5.68 g/m*3 12.4 C 12.9 km/h
49 04-05-2021 04:00:00 12.4 C 5.57 g/m*3 12.4 C 9.7 km/h
50 04-05-2021 04:05:00 12.5 C 5.61 g/m*3 12.5 C 16.1 km/h
Sensor: Nr:Datum:Temp:Abs-Feuchte:Windchill:Wind:
Aussen-T/F 51 04-05-2021 04:10:00 12.6 C 5.64 g/m*3 12.6 C 11.3 km/h
52 04-05-2021 04:15:00 12.7 C 5.57 g/m*3 12.7 C 12.9 km/h
53 04-05-2021 04:20:00 12.7 C 5.57 g/m*3 12.7 C 12.9 km/h
54 04-05-2021 04:25:00 12.8 C 5.6 g/m*3 12.8 C 14.5 km/h
55 04-05-2021 04:30:00 12.8 C 5.6 g/m*3 12.8 C 12.9 km/h
56 04-05-2021 04:35:00 12.7 C 5.57 g/m*3 12.7 C 11.3 km/h
57 04-05-2021 04:40:00 12.7 C 5.57 g/m*3 12.7 C 19.3 km/h
58 04-05-2021 04:45:00 12.8 C 5.49 g/m*3 12.8 C 12.9 km/h
59 04-05-2021 04:50:00 12.8 C 5.49 g/m*3 12.8 C 32.2 km/h
60 04-05-2021 04:55:00 12.8 C 5.6 g/m*3 12.8 C 8.1 km/h
61 04-05-2021 05:00:00 12.8 C 5.49 g/m*3 12.8 C 22.5 km/h
62 04-05-2021 05:05:00 12.7 C 5.45 g/m*3 12.7 C 19.3 km/h
63 04-05-2021 05:10:00 12.7 C 5.45 g/m*3 12.7 C 12.9 km/h
64 04-05-2021 05:15:00 12.7 C 5.45 g/m*3 12.7 C 25.7 km/h
65 04-05-2021 05:20:00 12.6 C 5.42 g/m*3 12.6 C 12.9 km/h
66 04-05-2021 05:25:00 12.6 C 5.42 g/m*3 12.6 C 25.7 km/h
67 04-05-2021 05:30:00 12.5 C 5.39 g/m*3 12.5 C 17.7 km/h
68 04-05-2021 05:35:00 12.5 C 5.28 g/m*3 12.5 C 22.5 km/h
69 04-05-2021 05:40:00 12.4 C 5.14 g/m*3 12.4 C 19.3 km/h
70 04-05-2021 05:45:00 12.5 C 5.28 g/m*3 12.5 C 35.4 km/h
71 04-05-2021 05:50:00 12.4 C 5.14 g/m*3 12.4 C 22.5 km/h
72 04-05-2021 05:55:00 12.4 C 5.14 g/m*3 12.4 C 17.7 km/h
73 04-05-2021 06:00:00 12.3 C 5.21 g/m*3 12.3 C 22.5 km/h
74 04-05-2021 06:05:00 12.3 C 5.43 g/m*3 12.3 C 24.1 km/h
75 04-05-2021 06:10:00 12.1 C 5.68 g/m*3 12.1 C 16.1 km/h
Sensor: Nr:Datum:Temp:Abs-Feuchte:Windchill:Wind:
Aussen-T/F 76 04-05-2021 06:15:00 11.8 C 5.58 g/m*3 11.8 C 24.1 km/h
77 04-05-2021 06:20:00 11.6 C 5.82 g/m*3 11.6 C 19.3 km/h
78 04-05-2021 06:25:00 11.3 C 5.92 g/m*3 11.3 C 24.1 km/h
79 04-05-2021 06:30:00 11.2 C 5.78 g/m*3 11.2 C 22.5 km/h
80 04-05-2021 06:35:00 11.1 C 5.94 g/m*3 11.1 C 29 km/h
81 04-05-2021 06:40:00 10.8 C 5.93 g/m*3 7.79 C 27.4 km/h
82 04-05-2021 06:45:00 10.6 C 6.15 g/m*3 7.78 C 24.1 km/h
83 04-05-2021 06:50:00 10.3 C 6.32 g/m*3 7.53 C 22.5 km/h
84 04-05-2021 06:55:00 10 C 6.67 g/m*3 7.98 C 14.5 km/h
85 04-05-2021 07:00:00 9.7 C 6.82 g/m*3 7.07 C 19.3 km/h
86 04-05-2021 07:05:00 9.4 C 6.78 g/m*3 6.11 C 25.7 km/h
87 04-05-2021 07:10:00 9.2 C 6.79 g/m*3 6.79 C 16.1 km/h
88 04-05-2021 07:15:00 9 C 6.88 g/m*3 6.75 C 14.5 km/h
89 04-05-2021 07:20:00 8.9 C 6.92 g/m*3 7.37 C 9.7 km/h
90 04-05-2021 07:25:00 8.8 C 6.88 g/m*3 5.77 C 20.9 km/h
91 04-05-2021 07:30:00 8.7 C 6.92 g/m*3 5.81 C 19.3 km/h
92 04-05-2021 07:35:00 8.6 C 6.96 g/m*3 6.25 C 14.5 km/h
93 04-05-2021 07:40:00 8.4 C 6.96 g/m*3 6.49 C 11.3 km/h
94 04-05-2021 07:45:00 8.3 C 6.91 g/m*3 5.31 C 19.3 km/h
95 04-05-2021 07:50:00 8.3 C 7.08 g/m*3 7.41 C 6.4 km/h
96 04-05-2021 07:55:00 8.2 C 7.03 g/m*3 6.25 C 11.3 km/h
97 04-05-2021 08:00:00 8.1 C 6.99 g/m*3 5.87 C 12.9 km/h
98 04-05-2021 08:05:00 8.1 C 6.99 g/m*3 5.43 C 16.1 km/h
99 04-05-2021 08:10:00 8.1 C 6.91 g/m*3 6.13 C 11.3 km/h
100 04-05-2021 08:15:00 8.1 C 6.91 g/m*3 5.23 C 17.7 km/h
Sensor: Nr:Datum:Temp:Abs-Feuchte:Windchill:Wind:
Aussen-T/F 101 04-05-2021 08:20:00 8.1 C 6.91 g/m*3 6.13 C 11.3 km/h
102 04-05-2021 08:25:00 8.1 C 6.82 g/m*3 5.43 C 16.1 km/h
103 04-05-2021 08:30:00 8.2 C 6.95 g/m*3 6.54 C 9.7 km/h
104 04-05-2021 08:35:00 8.2 C 6.95 g/m*3 6.25 C 11.3 km/h
105 04-05-2021 08:40:00 8.3 C 6.91 g/m*3 6.12 C 12.9 km/h
106 04-05-2021 08:45:00 8.3 C 6.83 g/m*3 4.98 C 22.5 km/h
107 04-05-2021 08:50:00 8.4 C 6.87 g/m*3 5.8 C 16.1 km/h
108 04-05-2021 08:55:00 8.4 C 6.87 g/m*3 5.27 C 20.9 km/h
109 04-05-2021 09:00:00 8.4 C 6.87 g/m*3 5.43 C 19.3 km/h
110 04-05-2021 09:05:00 8.5 C 6.92 g/m*3 5.73 C 17.7 km/h
111 04-05-2021 09:10:00 8.6 C 6.87 g/m*3 5.52 C 20.9 km/h
112 04-05-2021 09:15:00 8.6 C 6.96 g/m*3 5.52 C 20.9 km/h
113 04-05-2021 09:20:00 8.7 C 6.92 g/m*3 4.95 C 29 km/h
114 04-05-2021 09:25:00 8.7 C 6.92 g/m*3 6.38 C 14.5 km/h
115 04-05-2021 09:30:00 8.8 C 6.96 g/m*3 6.11 C 17.7 km/h
116 04-05-2021 09:35:00 8.8 C 6.96 g/m*3 5.2 C 27.4 km/h
117 04-05-2021 09:40:00 8.8 C 6.88 g/m*3 6.11 C 17.7 km/h
118 04-05-2021 09:45:00 8.8 C 6.88 g/m*3 5.34 C 25.7 km/h
119 04-05-2021 09:50:00 8.9 C 6.92 g/m*3 6.42 C 16.1 km/h
120 04-05-2021 09:55:00 8.9 C 6.92 g/m*3 6.62 C 14.5 km/h
121 04-05-2021 10:00:00 9.1 C 7.01 g/m*3 6 C 22.5 km/h
122 04-05-2021 10:05:00 9.2 C 6.97 g/m*3 6.13 C 22.5 km/h
123 04-05-2021 10:10:00 9.3 C 7.01 g/m*3 6.41 C 20.9 km/h
124 04-05-2021 10:15:00 9.3 C 7.01 g/m*3 5.31 C 35.4 km/h
125 04-05-2021 10:20:00 9.3 C 7.01 g/m*3 5.73 C 29 km/h
Sensor: Nr:Datum:Temp:Abs-Feuchte:Windchill:Wind:
Aussen-T/F 126 04-05-2021 10:25:00 9.3 C 7.01 g/m*3 5.98 C 25.7 km/h
127 04-05-2021 10:30:00 9.3 C 7.01 g/m*3 6.12 C 24.1 km/h
128 04-05-2021 10:35:00 9.3 C 7.01 g/m*3 6.12 C 24.1 km/h
129 04-05-2021 10:40:00 9.3 C 7.1 g/m*3 6.26 C 22.5 km/h
130 04-05-2021 10:45:00 9.4 C 7.05 g/m*3 6.53 C 20.9 km/h
131 04-05-2021 10:50:00 9.5 C 7.1 g/m*3 7.36 C 14.5 km/h
132 04-05-2021 10:55:00 9.6 C 7.15 g/m*3 5.9 C 32.2 km/h
133 04-05-2021 11:00:00 9.7 C 7.19 g/m*3 6.63 C 24.1 km/h
134 04-05-2021 11:05:00 9.7 C 7.19 g/m*3 7.07 C 19.3 km/h
135 04-05-2021 11:10:00 9.8 C 7.24 g/m*3 7.54 C 16.1 km/h
136 04-05-2021 11:15:00 9.9 C 7.28 g/m*3 6.89 C 24.1 km/h
137 04-05-2021 11:20:00 10 C 7.33 g/m*3 7.44 C 19.3 km/h
138 04-05-2021 11:25:00 10.2 C 7.33 g/m*3 7.86 C 17.7 km/h
139 04-05-2021 11:30:00 10.5 C 7.47 g/m*3 7.53 C 25.7 km/h
140 04-05-2021 11:35:00 10.7 C 7.46 g/m*3 7.91 C 24.1 km/h
141 04-05-2021 11:40:00 10.7 C 7.46 g/m*3 7.91 C 24.1 km/h
142 04-05-2021 11:45:00 10.7 C 7.46 g/m*3 8.84 C 14.5 km/h
143 04-05-2021 11:50:00 10.6 C 7.42 g/m*3 8.2 C 19.3 km/h
144 04-05-2021 11:55:00 10.7 C 7.46 g/m*3 7.66 C 27.4 km/h
145 04-05-2021 12:00:00 10.8 C 7.61 g/m*3 8.61 C 17.7 km/h
146 04-05-2021 12:05:00 10.9 C 7.56 g/m*3 8.73 C 17.7 km/h
147 04-05-2021 12:10:00 10.9 C 7.56 g/m*3 8.43 C 20.9 km/h
148 04-05-2021 12:15:00 11.1 C 7.66 g/m*3 11.1 C 19.3 km/h
149 04-05-2021 12:20:00 11.1 C 7.55 g/m*3 11.1 C 19.3 km/h
150 04-05-2021 12:25:00 11.1 C 7.55 g/m*3 11.1 C 22.5 km/h
Sensor: Nr:Datum:Temp:Abs-Feuchte:Windchill:Wind:
Aussen-T/F 151 04-05-2021 12:30:00 11.1 C 7.55 g/m*3 11.1 C 37 km/h
152 04-05-2021 12:35:00 11.2 C 7.6 g/m*3 11.2 C 16.1 km/h
153 04-05-2021 12:40:00 11.3 C 7.65 g/m*3 11.3 C 11.3 km/h
154 04-05-2021 12:45:00 11.6 C 7.8 g/m*3 11.6 C 30.6 km/h
155 04-05-2021 12:50:00 11.8 C 7.79 g/m*3 11.8 C 19.3 km/h
156 04-05-2021 12:55:00 11.9 C 7.84 g/m*3 11.9 C 25.7 km/h
157 04-05-2021 13:00:00 12.1 C 7.83 g/m*3 12.1 C 17.7 km/h
158 04-05-2021 13:05:00 12.1 C 7.83 g/m*3 12.1 C 16.1 km/h
159 04-05-2021 13:10:00 12.1 C 7.94 g/m*3 12.1 C 24.1 km/h
160 04-05-2021 13:15:00 12.2 C 7.99 g/m*3 12.2 C 27.4 km/h
161 04-05-2021 13:20:00 12.2 C 7.99 g/m*3 12.2 C 17.7 km/h
162 04-05-2021 13:25:00 12.3 C 8.04 g/m*3 12.3 C 16.1 km/h
163 04-05-2021 13:30:00 12.6 C 8.08 g/m*3 12.6 C 22.5 km/h
164 04-05-2021 13:35:00 12.9 C 8.23 g/m*3 12.9 C 16.1 km/h
165 04-05-2021 13:40:00 13.1 C 8.22 g/m*3 13.1 C 27.4 km/h
166 04-05-2021 13:45:00 13.4 C 8.37 g/m*3 13.4 C 20.9 km/h
167 04-05-2021 13:50:00 13.7 C 8.41 g/m*3 13.7 C 20.9 km/h
168 04-05-2021 13:55:00 13.9 C 8.39 g/m*3 13.9 C 22.5 km/h
169 04-05-2021 14:00:00 14 C 8.32 g/m*3 14 C 22.5 km/h
170 04-05-2021 14:05:00 13.9 C 8.39 g/m*3 13.9 C 29 km/h
171 04-05-2021 14:10:00 14 C 8.56 g/m*3 14 C 27.4 km/h
172 04-05-2021 14:15:00 13.9 C 8.39 g/m*3 13.9 C 20.9 km/h
173 04-05-2021 14:20:00 14 C 8.68 g/m*3 14 C 19.3 km/h
174 04-05-2021 14:25:00 14.1 C 8.62 g/m*3 14.1 C 29 km/h
175 04-05-2021 14:30:00 14.1 C 8.5 g/m*3 14.1 C 29 km/h
Sensor: Nr:Datum:Temp:Abs-Feuchte:Windchill:Wind:
Aussen-T/F 176 04-05-2021 14:35:00 14.2 C 8.43 g/m*3 14.2 C 24.1 km/h
177 04-05-2021 14:40:00 14.3 C 8.48 g/m*3 14.3 C 25.7 km/h
178 04-05-2021 14:45:00 14.2 C 8.3 g/m*3 14.2 C 30.6 km/h
179 04-05-2021 14:50:00 14.1 C 8.62 g/m*3 14.1 C 22.5 km/h
180 04-05-2021 14:55:00 13.7 C 8.64 g/m*3 13.7 C 20.9 km/h
181 04-05-2021 15:00:00 13.7 C 8.64 g/m*3 13.7 C 20.9 km/h
182 04-05-2021 15:05:00 13.8 C 8.82 g/m*3 13.8 C 20.9 km/h
183 04-05-2021 15:10:00 13.9 C 8.75 g/m*3 13.9 C 19.3 km/h
184 04-05-2021 15:15:00 14.4 C 8.9 g/m*3 14.4 C 17.7 km/h
185 04-05-2021 15:20:00 14.8 C 8.61 g/m*3 14.8 C 25.7 km/h
186 04-05-2021 15:25:00 15.1 C 8.64 g/m*3 15.1 C 20.9 km/h
187 04-05-2021 15:30:00 15.3 C 8.49 g/m*3 15.3 C 20.9 km/h
188 04-05-2021 15:35:00 15.4 C 8.41 g/m*3 15.4 C 17.7 km/h
189 04-05-2021 15:40:00 15.6 C 8.38 g/m*3 15.6 C 32.2 km/h
190 04-05-2021 15:45:00 15.4 C 8.41 g/m*3 15.4 C 14.5 km/h
191 04-05-2021 15:50:00 15.4 C 8.54 g/m*3 15.4 C 24.1 km/h
192 04-05-2021 15:55:00 15.2 C 8.44 g/m*3 15.2 C 17.7 km/h
193 04-05-2021 16:00:00 14.9 C 8.16 g/m*3 14.9 C 19.3 km/h
194 04-05-2021 16:05:00 14.7 C 8.31 g/m*3 14.7 C 14.5 km/h
195 04-05-2021 16:10:00 14.6 C 8.38 g/m*3 14.6 C 16.1 km/h
196 04-05-2021 16:15:00 14.3 C 8.97 g/m*3 14.3 C 16.1 km/h
197 04-05-2021 16:20:00 13.7 C 8.76 g/m*3 13.7 C 16.1 km/h
198 04-05-2021 16:25:00 13.6 C 8.83 g/m*3 13.6 C 19.3 km/h
199 04-05-2021 16:30:00 13.4 C 8.6 g/m*3 13.4 C 22.5 km/h
200 04-05-2021 16:35:00 13.3 C 8.43 g/m*3 13.3 C 16.1 km/h
Sensor: Nr:Datum:Temp:Abs-Feuchte:Windchill:Wind:
Aussen-T/F 201 04-05-2021 16:40:00 13.1 C 8.56 g/m*3 13.1 C 14.5 km/h
202 04-05-2021 16:45:00 12.8 C 8.85 g/m*3 12.8 C 20.9 km/h
203 04-05-2021 16:50:00 12.6 C 8.74 g/m*3 12.6 C 14.5 km/h
204 04-05-2021 16:55:00 12.6 C 8.85 g/m*3 12.6 C 12.9 km/h
205 04-05-2021 17:00:00 12.8 C 8.85 g/m*3 12.8 C 9.7 km/h
206 04-05-2021 17:05:00 13 C 8.96 g/m*3 13 C 11.3 km/h
207 04-05-2021 17:10:00 13.2 C 8.73 g/m*3 13.2 C 12.9 km/h
208 04-05-2021 17:15:00 13.3 C 8.78 g/m*3 13.3 C 9.7 km/h
209 04-05-2021 17:20:00 13.3 C 8.66 g/m*3 13.3 C 14.5 km/h
210 04-05-2021 17:25:00 13.3 C 8.55 g/m*3 13.3 C 19.3 km/h
211 04-05-2021 17:30:00 13.2 C 8.38 g/m*3 13.2 C 17.7 km/h
212 04-05-2021 17:35:00 13.2 C 8.27 g/m*3 13.2 C 12.9 km/h
213 04-05-2021 17:40:00 13.2 C 8.27 g/m*3 13.2 C 17.7 km/h
214 04-05-2021 17:45:00 13.2 C 8.27 g/m*3 13.2 C 12.9 km/h
215 04-05-2021 17:50:00 13.3 C 8.2 g/m*3 13.3 C 14.5 km/h
216 04-05-2021 17:55:00 13.5 C 8.19 g/m*3 13.5 C 16.1 km/h
217 04-05-2021 18:00:00 14.1 C 8.62 g/m*3 14.1 C 14.5 km/h
218 04-05-2021 18:05:00 14.4 C 8.41 g/m*3 14.4 C 19.3 km/h
219 04-05-2021 18:10:00 14.3 C 8.35 g/m*3 14.3 C 20.9 km/h
220 04-05-2021 18:15:00 14 C 8.2 g/m*3 14 C 16.1 km/h
221 04-05-2021 18:20:00 13.7 C 8.17 g/m*3 13.7 C 16.1 km/h
222 04-05-2021 18:25:00 13.7 C 8.29 g/m*3 13.7 C 14.5 km/h
223 04-05-2021 18:30:00 13.6 C 8.12 g/m*3 13.6 C 16.1 km/h
224 04-05-2021 18:35:00 13.3 C 8.2 g/m*3 13.3 C 14.5 km/h
225 04-05-2021 18:40:00 13.1 C 8.33 g/m*3 13.1 C 12.9 km/h
Sensor: Nr:Datum:Temp:Abs-Feuchte:Windchill:Wind:
Aussen-T/F 226 04-05-2021 18:45:00 12.8 C 8.4 g/m*3 12.8 C 14.5 km/h
227 04-05-2021 18:50:00 12.4 C 8.52 g/m*3 12.4 C 19.3 km/h
228 04-05-2021 18:55:00 12.2 C 9.06 g/m*3 12.2 C 6.4 km/h
229 04-05-2021 19:00:00 12.3 C 9.12 g/m*3 12.3 C 9.7 km/h
230 04-05-2021 19:05:00 12.2 C 8.85 g/m*3 12.2 C 8.1 km/h
231 04-05-2021 19:10:00 11.9 C 8.79 g/m*3 11.9 C 8.1 km/h
232 04-05-2021 19:15:00 11.6 C 8.73 g/m*3 11.6 C 6.4 km/h
233 04-05-2021 19:20:00 11.3 C 8.47 g/m*3 11.3 C 19.3 km/h
234 04-05-2021 19:25:00 11.2 C 8.41 g/m*3 11.2 C 14.5 km/h
235 04-05-2021 19:30:00 11.1 C 8.36 g/m*3 11.1 C 12.9 km/h
236 04-05-2021 19:35:00 10.9 C 8.26 g/m*3 9.08 C 14.5 km/h
237 04-05-2021 19:40:00 10.9 C 8.26 g/m*3 9.28 C 12.9 km/h
238 04-05-2021 19:45:00 10.9 C 8.16 g/m*3 10.04 C 8.1 km/h
239 04-05-2021 19:50:00 10.9 C 8.26 g/m*3 9.76 C 9.7 km/h
240 04-05-2021 19:55:00 11 C 8.31 g/m*3 9.88 C 9.7 km/h
241 04-05-2021 20:00:00 11.1 C 8.26 g/m*3 11.1 C 16.1 km/h
242 04-05-2021 20:05:00 11.1 C 8.36 g/m*3 11.1 C 3.2 km/h
243 04-05-2021 20:10:00 10.9 C 8.16 g/m*3 10.04 C 8.1 km/h
244 04-05-2021 20:15:00 10.9 C 8.16 g/m*3 10.04 C 8.1 km/h
245 04-05-2021 20:20:00 10.8 C 8.2 g/m*3 9.93 C 8.1 km/h
246 04-05-2021 20:25:00 10.7 C 8.05 g/m*3 9.04 C 12.9 km/h
247 04-05-2021 20:30:00 10.7 C 8.15 g/m*3 10.18 C 6.4 km/h
248 04-05-2021 20:35:00 10.5 C 8.15 g/m*3 10.5 C 4.8 km/h
249 04-05-2021 20:40:00 10.4 C 8 g/m*3 9.46 C 8.1 km/h
250 04-05-2021 20:45:00 10.4 C 8.1 g/m*3 9.83 C 6.4 km/h
Sensor: Nr:Datum:Temp:Abs-Feuchte:Windchill:Wind:
Aussen-T/F 251 04-05-2021 20:50:00 10.3 C 8.04 g/m*3 9.34 C 8.1 km/h
252 04-05-2021 20:55:00 10.2 C 7.99 g/m*3 8.43 C 12.9 km/h
253 04-05-2021 21:00:00 10.3 C 8.04 g/m*3 8.78 C 11.3 km/h
254 04-05-2021 21:05:00 10.3 C 8.04 g/m*3 9.72 C 6.4 km/h
255 04-05-2021 21:10:00 10.2 C 7.99 g/m*3 8.66 C 11.3 km/h
256 04-05-2021 21:15:00 10.2 C 8.09 g/m*3 9.22 C 8.1 km/h
257 04-05-2021 21:20:00 10.1 C 8.04 g/m*3 8.8 C 9.7 km/h
258 04-05-2021 21:25:00 10.1 C 8.04 g/m*3 8.54 C 11.3 km/h
259 04-05-2021 21:30:00 10.1 C 8.04 g/m*3 9.48 C 6.4 km/h
260 04-05-2021 21:35:00 10.1 C 8.04 g/m*3 9.1 C 8.1 km/h
261 04-05-2021 21:40:00 9.9 C 8.03 g/m*3 8.87 C 8.1 km/h
262 04-05-2021 21:45:00 9.8 C 7.89 g/m*3 9.8 C 1.6 km/h
263 04-05-2021 21:50:00 9.7 C 7.93 g/m*3 9.7 C 3.2 km/h
264 04-05-2021 21:55:00 9.5 C 7.83 g/m*3 8.09 C 9.7 km/h
265 04-05-2021 22:00:00 9.3 C 7.82 g/m*3 8.56 C 6.4 km/h
266 04-05-2021 22:05:00 9.2 C 7.77 g/m*3 9.2 C 3.2 km/h
267 04-05-2021 22:10:00 9.2 C 7.86 g/m*3 8.45 C 6.4 km/h
268 04-05-2021 22:15:00 9.1 C 7.81 g/m*3 9.1 C 3.2 km/h
269 04-05-2021 22:20:00 9 C 7.76 g/m*3 9 C 4.8 km/h
270 04-05-2021 22:25:00 8.9 C 7.71 g/m*3 8.9 C 1.6 km/h
271 04-05-2021 22:30:00 8.8 C 7.66 g/m*3 8.8 C 4.8 km/h
272 04-05-2021 22:35:00 8.7 C 7.61 g/m*3 8.7 C 4.8 km/h
273 04-05-2021 22:40:00 8.6 C 7.65 g/m*3 8.6 C 4.8 km/h
274 04-05-2021 22:45:00 8.4 C 7.55 g/m*3 8.4 C 4.8 km/h
275 04-05-2021 22:50:00 8.3 C 7.5 g/m*3 8.3 C 4.8 km/h
Sensor: Nr:Datum:Temp:Abs-Feuchte:Windchill:Wind:
Aussen-T/F 276 04-05-2021 22:55:00 8.2 C 7.45 g/m*3 8.2 C 3.2 km/h
277 04-05-2021 23:00:00 8.1 C 7.41 g/m*3 8.1 C 3.2 km/h
278 04-05-2021 23:05:00 7.9 C 7.39 g/m*3 7.9 C 3.2 km/h
279 04-05-2021 23:10:00 7.8 C 7.35 g/m*3 7.8 C 3.2 km/h
280 04-05-2021 23:15:00 7.8 C 7.35 g/m*3 7.8 C 3.2 km/h
281 04-05-2021 23:20:00 7.7 C 7.3 g/m*3 7.7 C 3.2 km/h
282 04-05-2021 23:25:00 7.6 C 7.33 g/m*3 7.6 C 3.2 km/h
283 04-05-2021 23:30:00 7.5 C 7.2 g/m*3 7.5 C 3.2 km/h
284 04-05-2021 23:35:00 7.4 C 7.24 g/m*3 7.4 C 3.2 km/h
285 04-05-2021 23:40:00 7.3 C 7.11 g/m*3 7.3 C 3.2 km/h
286 04-05-2021 23:45:00 7.2 C 7.14 g/m*3 7.2 C 3.2 km/h
287 04-05-2021 23:50:00 7.1 C 7.1 g/m*3 7.1 C 3.2 km/h
288 04-05-2021 23:55:00 7 C 7.05 g/m*3 7 C 4.8 km/h

Legende:
   Min
   Max


Maximal/Minimal-Werte vom 04.05.2021 - 04.05.2021

Sensor Min Max Avg
Temp
(Aussen-T/F)
7 °C
04-05-2021  23:55:00
15.6 °C
04-05-2021  15:40:00
11.09 °C
Abs-Feuchte
(Aussen-T/F)
5.14 g/m*3
04-05-2021  05:40:00
9.12 g/m*3
04-05-2021  19:00:00
7.15 g/m*3
Windchill
(Aussen-T/F)
4.95 C
04-05-2021  09:20:00
15.6 C
04-05-2021  15:40:00
10.31 C

Die Daten stammen von einer Davis Vantage Pro 2 Wetter-Station und werden unter Linux mit der Software wview2wettercgi und aufbereitet. Alle Angaben erfolgen ohne Gewähr für ihre Vollständigkeit oder Richtigkeit.
Kontakt: Rainer Krienke krienke@uni-koblenz.de . Meine Webseiten an der Uni Koblenz oder privat.
Version: $Revision: 0.78 $